Location: Boiro
(42.6475°N, 8.8834°W)
Time: 23:48:46
(UTC+01:00)

Tiros 1 - Pass Details

Date: 08 December 2021
Orbit: 629 x 664 km, 48.4° (Epoch: 18 January)

Event Time Altitude Azimuth Distance (km) Brightness Sun altitude
Rises 00:26:03 0° 295° (WNW) 2,949 - -66.3°
Reaches altitude 10° 00:28:24 10° 292° (WNW) 2,043 - -66.6°
Maximum altitude 00:33:01 59° 213° (SSW) 748 - -67.1°
Drops below altitude 10° 00:37:41 10° 134° (SE) 2,056 - -67.6°
Sets 00:40:03 0° 131° (SE) 2,969 - -67.8°
